This demonstration page uses our WeatherBlox Daily Observations layout. Learn more.

Hourly Observations for July 2, 2020

Temp ( °F °C ) Dew Point ( °F °C ) Humidity (%) Winds ( mph kmh ) Pressure ( in mb ) Visibility ( mi km ) Precip ( " mm )
12:54 am 00:54 Clear 73 22.8 68 20 84 84 Calm 29.93 1014 10 16.0934 0 0
1:54 am 01:54 Clear 71 21.7 67 19.4 87 87 N 5 7 29.94 1014 10 16.0934 0 0
2:54 am 02:54 Clear 73 22.8 68 20 84 84 NE 3 6 29.93 1014 10 16.0934 0 0
3:54 am 03:54 Clear 70 21.1 67 19.4 90 90 NNE 5 7 29.95 1014 10 16.0934 0 0
4:54 am 04:54 Clear 71 21.7 67 19.4 87 87 Calm 29.97 1015 10 16.0934 0 0
5:54 am 05:54 Clear 69 20.6 67 19.4 93 93 NE 5 7 29.97 1015 10 16.0934 0 0
6:54 am 06:54 Sunny 71 21.7 68 20 90 90 NE 5 7 29.97 1015 10 16.0934 0 0
7:54 am 07:54 Mostly Sunny 74 23.3 69 20.6 85 85 E 8 13 29.98 1015 10 16.0934 0 0
8:54 am 08:54 Sunny 77 25 69 20.6 77 77 E 7 11 30.01 1016 10 16.0934 0 0
9:54 am 09:54 Mostly Sunny 78 25.6 70 21.1 76 76 E 6 9 30.01 1016 10 16.0934 0 0
10:54 am 10:54 Mostly Sunny 79 26.1 69 20.6 72 72 E 6 9 30.01 1016 10 16.0934 0 0
11:14 am 11:14 Mostly Cloudy 80 26.7 70 21.1 71 71 SE 8 13 29.99 1016 10 16.0934 0 0
11:39 am 11:39 Partly Cloudy 81 27.2 70 21.1 69 69 SSE 6 9 29.99 1015 10 16.0934 0 0
11:54 am 11:54 Mostly Cloudy 81 27.2 70 21.1 69 69 SE 9 15 30.01 1016 10 16.0934 0 0
12:54 pm 12:54 Mostly Cloudy 83 28.3 70 21.1 65 65 SE 8 13 30 1016 10 16.0934 0 0
1:43 pm 13:43 Mostly Cloudy 85 29.4 70 21.1 61 61 ESE 8 13 29.96 1014 10 16.0934 0 0
1:54 pm 13:54 Partly Cloudy 86 30 70 21.1 59 59 undefined N/A 29.99 1016 10 16.0934 0 0
2:54 pm 14:54 Mostly Sunny 86 30 71 21.7 61 61 ENE 10 17 29.98 1015 10 16.0934 0 0
3:54 pm 15:54 Mostly Sunny 87 30.6 71 21.7 59 59 E 8 13 29.96 1015 10 16.0934 0 0
4:54 pm 16:54 Partly Cloudy 87 30.6 71 21.7 59 59 E 15 24 29.96 1015 10 16.0934 0 0
5:54 pm 17:54 Partly Cloudy 86 30 71 21.7 61 61 ESE 10 17 29.95 1014 10 16.0934 0 0
6:54 pm 18:54 Mostly Cloudy 84 28.9 70 21.1 63 63 ESE 12 19 29.93 1014 10 16.0934 0 0
7:54 pm 19:54 Mostly Cloudy 83 28.3 70 21.1 65 65 ESE 13 20 29.93 1014 10 16.0934 0 0
8:54 pm 20:54 Sunny 81 27.2 69 20.6 67 67 SE 9 15 29.95 1014 10 16.0934 0 0
9:54 pm 21:54 Clear 79 26.1 70 21.1 74 74 SE 8 13 29.97 1015 10 16.0934 0 0
10:54 pm 22:54 Clear 79 26.1 70 21.1 74 74 ESE 7 11 29.98 1015 10 16.0934 0 0
11:54 pm 23:54 Clear 78 25.6 70 21.1 76 76 ESE 7 11 29.98 1015 10 16.0934 0 0

Powered by AerisWeather